Regional Weather Roundup
Issued by NWS

Home | Current Version | Previous Version | Graphics & Text | Print | Product List | Glossary On
Versions: 1 2 3 4 5 6 7 8 9 10 11 12 13 14 15 16 17 18 19 20 21 22 23 24 25 26 27 28 29 30 31 32 33 34 35 36 37 38 39 40 41 42 43 44 45 46 47 48 49 50
000
ASUS43 KMKX 261800
RWRWI

WISCONSIN REGIONAL WEATHER ROUNDUP
NATIONAL WEATHER SERVICE MILWAUKEE/SULLIVAN WI
100 PM CDT THU MAY 26 2016

NOTE: "FAIR" INDICATES FEW OR NO CLOUDS BELOW 12,000 FEET WITH NO
SIGNIFICANT WEATHER AND/OR OBSTRUCTIONS TO VISIBILITY.

WIZ001-002-006>008-014>016-023>028-261900-
NORTHWEST WISCONSIN

CITY           SKY/WX    TMP DP  RH WIND       PRES   REMARKS
SUPERIOR ARPT  CLOUDY    50  48  94 E3        29.82S
ASHLAND        CLOUDY    59  57  93 E3        29.81F
6HR MIN TEMP:  50; 6HR MAX TEMP:  59;

HAYWARD        MOSUNNY   73  60  63 S8        29.79S
6HR MIN TEMP:  58; 6HR MAX TEMP:  73;

SIREN          SUNNY     76  57  51 SW10      29.78S
CUMBERLAND     SUNNY     72  54  53 W7        29.80S
RICE LAKE      SUNNY     73  56  53 S5        29.81F
CHETEK         SUNNY     74  57  56 SW8       29.80F
LADYSMITH      MOSUNNY   72  61  68 W3        29.83R
EAU CLAIRE     NOT AVBL
MENOMONIE      SUNNY     76  64  67 S13       29.81S
NEW RICHMOND   SUNNY     75  57  53 SW10G16   29.81R
OSCEOLA        SUNNY     76  60  57 S7        29.82S
$$

WIZ003>005-009-010-017-018-261900-
NORTH CENTRAL WISCONSIN

CITY           SKY/WX    TMP DP  RH WIND       PRES   REMARKS
MANITOWISH WTR NOT AVBL
ARBOR VITAE    DRIZZLE   64  62  93 N6        29.81F
WOODRUFF       DRIZZLE   64  62  93 N6        29.81F
RHINELANDER    CLOUDY    63  60  90 E6        29.83S
6HR MIN TEMP:  62; 6HR MAX TEMP:  64; 6HR PCP:  0.16;

EAGLE RIVER    LGT RAIN  63  61  93 N6        29.84R
LAND O LAKES   RAIN      62  60  93 N6        29.85S
PHILLIPS       PTSUNNY   69  60  71 CALM      29.80S
TOMAHAWK       PTSUNNY   65  61  88 CALM      29.82S
MEDFORD        PTSUNNY   67  62  84 SW8       29.83S
MERRILL        PTSUNNY  N/A N/A N/A SW5       29.84R
$$

WIZ029-030-035-036-043>047-261900-
CENTRAL WISCONSIN

CITY           SKY/WX    TMP DP  RH WIND       PRES   REMARKS
WAUSAU         PTSUNNY   73  61  65 VRB7      29.81S
6HR MIN TEMP:  62; 6HR MAX TEMP:  74; 6HR PCP:  0.17;

MOSINEE        MOSUNNY   72  63  73 W12G20    29.84S
MARSHFIELD     MOSUNNY   73  59  61 W12G22    29.83S
6HR MIN TEMP:  61; 6HR MAX TEMP:  73; 6HR PCP:  0.19;

STEVENS POINT  PTSUNNY   71  60  68 SW14G20   29.83S
WAUPACA        MOSUNNY   75  64  69 SW13G20   29.83F
WAUTOMA        MOSUNNY   76  64  66 SW12      29.84S
6HR MIN TEMP:  58; 6HR MAX TEMP:  76; 6HR PCP:  0.05;

WISC RAPIDS    PTSUNNY   76  59  55 W15       29.84F
6HR MIN TEMP:  60; 6HR MAX TEMP:  76; 6HR PCP:  0.39;

CAMP DOUGLAS   NOT AVBL
$$

WIZ011>013-019>022-031-037>040-048>050-261900-
NORTHEAST WISCONSIN

CITY           SKY/WX    TMP DP  RH WIND       PRES   REMARKS
ANTIGO         CLOUDY    66  62  86 CALM      29.83F
SHAWANO        PTSUNNY   74  64  70 SW12G17   29.82R
OCONTO         MOSUNNY   67  67 100 E6        29.79R
STURGEON BAY   NOT AVBL
GREEN BAY      SUNNY     77  64  64 SW16G28   29.80R
6HR MIN TEMP:  63; 6HR MAX TEMP:  79;

MANITOWOC      NOT AVBL
APPLETON       PTSUNNY   73  63  68 W17G23    29.82S
CLINTONVILLE   CLOUDY    72  61  68 SW12      29.82F
OSHKOSH        MOSUNNY   78  63  59 SW12G25   29.82S HX  80
6HR MIN TEMP:  65; 6HR MAX TEMP:  78; 6HR PCP:  0.03;

$$

WIZ032>034-041-042-053>061-261900-
SOUTHWEST WISCONSIN

CITY           SKY/WX    TMP DP  RH WIND       PRES   REMARKS
LA CROSSE      MOSUNNY   78  61  55 VRB7      29.83F HX  80
6HR MIN TEMP:  61; 6HR MAX TEMP:  78; 6HR PCP:  0.06;

SPARTA         SUNNY     74  60  60 W6G16     29.86F
VIROQUA        SUNNY     74  60  62 W9G16     29.88F
BOSCOBEL       SUNNY     81  57  43 SW12      29.86F HX  81
6HR MIN TEMP:  64; 6HR MAX TEMP:  81; 6HR PCP: TRACE;

PRAIRIE DU CHI SUNNY     78  55  44 S6        29.86F
PLATTEVILLE    SUNNY     81  52  36 W14G20    29.88F HX  80
$$

WIZ056-057-062-063-064-067-068-261900-
SOUTH CENTRAL WISCONSIN

CITY           SKY/WX    TMP DP  RH WIND       PRES   REMARKS
REEDSBURG      SUNNY     77  62  59 SW12G20   29.86F
BARABOO/DELLS  MOSUNNY   76  58  53 SW14G22   29.86F
LONE ROCK      NOT AVBL
MINERAL POINT  SUNNY     81  52  36 SW15      29.88F HX  80
MADISON        MOSUNNY   79  58  48 SW10G21   29.84F HX  80
6HR MIN TEMP:  65; 6HR MAX TEMP:  79; 6HR PCP:  0.08;

MIDDLETON      SUNNY     79  61  52 W14       29.87F HX  80
WATERTOWN      SUNNY     77  64  63 SW13G18   29.86S
MONROE         SUNNY     79  55  44 SW16      29.88F
JANESVILLE     MOSUNNY   81  63  54 SW12G17   29.87F HX  82
$$

WIZ051-052-058>065-066-070>072-261900-
SOUTHEAST WISCONSIN

CITY           SKY/WX    TMP DP  RH WIND       PRES   REMARKS
MILWAUKEE      CLOUDY    78  64  61 SW17      29.86F HX  80
6HR MIN TEMP:  67; 6HR MAX TEMP:  79; 6HR PCP:  0.03;

WAUKESHA       SUNNY     75  61  60 SW12G17   29.88S
MILWAUKEE/TIMM SUNNY     79  59  50 SW14      29.86F HX  80
RACINE         MOSUNNY   77  66  68 S15       29.89F
6HR MIN TEMP:  63; 6HR MAX TEMP:  78; 6HR PCP:  0.11;

BURLINGTON     MOSUNNY   76  65  68 S8        29.88F
KENOSHA        CLOUDY    80  64  58 S15G21    29.88F HX  82
6HR MIN TEMP:  68; 6HR MAX TEMP:  80; 6HR PCP:  0.02;

FOND DU LAC    SUNNY     78  61  55 SW15G25   29.83R HX  80
6HR MIN TEMP:  65; 6HR MAX TEMP:  79; 6HR PCP:  0.05;

SHEBOYGAN      CLOUDY    80  63  55 SW21G26   29.83S HX  81
6HR MIN TEMP:  63; 6HR MAX TEMP:  80; 6HR PCP:  0.05;

WEST BEND      PTSUNNY   77  55  47 SW15G26   29.85S
JUNEAU         SUNNY     76  64  66 SW20G26   29.87S
$$

LSZ147-162-261900-
LAKE SUPERIOR

STATION/POSITION TIME  TEMP    WIND        PRES    WAVE
                       AIR SEA DIR/SP/G            HT/PER
                 (UTC) (F)     (DEG/KT/KT) (MB)    (FT/S)
W MID LAKE BUOY  1650   40 38   20/  6/  6 1010.7R   1/ 3
DEVILS ISLAND    1700   46     120/  4/  7 1010.1R
SAXON HARBOR     1700   47     330/  3/  5 1009.8S
$$

LMZ867-665-643>646-261900-
LAKE MICHIGAN

STATION/POSITION TIME  TEMP    WIND        PRES    WAVE
                       AIR SEA DIR/SP/G            HT/PER
                 (UTC) (F)     (DEG/KT/KT) (MB)    (FT/S)
CHAMBERS ISLAND  1700   62      80/  5/  6 1009.5F
N MID LAKE BUOY  1650   48 45  180/ 12/ 14 1010.5R   1/ 3
NORTHPORT PIER   1700   55     150/  7/ 10 1010.2S
SISTER BAY       1750   73     140/ 10/ 13   N/A
ALGOMA LAKESHORE 1717          180/  5/  6   N/A
KEWAUNEE LAKESHO 1700   51     160/  8/  9 1009.3F
SHEBOYGAN LAKESH 1700   62     180/ 20/ 21 1010.3F
PORT WASHINGTON  1700   65     190/  7/ 11 1011.5F
S MID LAKE BUOY  1650   54 49  170/ 12/ 14 1012.5F   1/ 3
KENOSHA   LAKESH 1700   59     170/ 13/ 15 1012.2F
$$

TC  - TEMPERATURE IN CELSIUS
VSB - VISIBILITY IN STATUTE MILES
WCI - WIND CHILL INDEX
HX  - HEAT INDEX





USA.gov is the U.S. government's official web portal to all federal, state and local government web resources and services.